Regional Weather Roundup
Issued by NWS

Home | Current Version | Previous Version | Text Only | Print | Product List | Glossary On
Versions: 1 2 3 4 5 6 7 8 9 10 11 12 13 14 15 16 17 18 19 20 21 22 23 24 25 26 27 28 29 30 31 32 33 34 35 36 37 38 39 40
000
ASUS45 KBOU 222110
RWRCO

WEATHER ROUNDUP FOR COLORADO
NATIONAL WEATHER SERVICE PUEBLO CO
200 PM MST THU FEB 22 2018

NOTE: "FAIR" INDICATES FEW OR NO CLOUDS BELOW 12000 FEET WITH NO
SIGNIFICANT WEATHER AND/OR OBSTRUCTIONS TO VISIBILITY.

COZ001>005-013-030-031-222200-
...NORTHWEST COLORADO...

CITY           SKY/WX    TMP DP  RH WIND       PRES   REMARKS
CRAIG          CLOUDY    24  15  68 S5        29.92F WCI  18
HAYDEN         PTSUNNY   21  15  78 SW6       29.90F WCI  13
MEEKER         LGT SNOW  27  19  72 CALM      29.89F
RABBIT EARS PA NOT AVBL
STEAMBOAT SPGS CLOUDY    25  13  60 SW3       29.88S
WALDEN         CLOUDY    25   7  46 W13G18    29.83F WCI  13
$$

COZ006>008-011-222200-
...WEST CENTRAL VALLEYS...

CITY           SKY/WX    TMP DP  RH WIND       PRES   REMARKS
GRAND JUNCTION PTSUNNY   32  29  88 SE10      29.96F WCI  24
MONTROSE       PTSUNNY   32  24  72 NW10      29.97S WCI  24
EAGLE          CLOUDY    29  19  66 SW17      29.91S WCI  17
RIFLE          CLOUDY    31  19  61 W18       29.94F WCI  19
DELTA          NOT AVBL
NUCLA          CLOUDY    32  18  55 SW8       30.00F WCI  25
$$

COZ017>023-064>068-222200-
...SOUTHWEST COLORADO...

CITY           SKY/WX    TMP DP  RH WIND       PRES   REMARKS
DURANGO        FAIR      32  13  45 SW14G21   29.98F WCI  22
CORTEZ         PTSUNNY   37   4  25 SW12G22   29.99F
PAGOSA SPRINGS LGT SNOW  26  19  73 W13       29.98R WCI  15
TELLURIDE      PTSUNNY   22   9  58 SW6       29.91F WCI  14
WOLF CREEK PAS CLOUDY     5   5 100 S25G37    29.86S WCI -18
$$

COZ009-010-012-014-032>034-037-058>063-222200-
...CENTRAL COLORADO...

CITY           SKY/WX    TMP DP  RH WIND       PRES   REMARKS
ASPEN          FLURRIES  24  18  77 N12G17    29.85R WCI  13
BUENA VISTA    CLOUDY    32  12  44 W14       29.80F WCI  22
COPPER MTN     LGT SNOW  18   9  68 SW14      29.75F WCI   4
BERTHOUD PASS  SNOW       5  -6  61 NW13G22   29.72F VSB 1/4 WCI -12
COTTONWOOD PAS LGT SNOW  28  16  59 W8G17     29.79S WCI  20
GUNNISON       CLOUDY    27  11  51 W22       29.87S WCI  13
KREMMLING      PTSUNNY   34  18  51 NW10G18   29.85S WCI  26
LEADVILLE      CLOUDY    20   7  57 W8        29.76F WCI  10
MONARCH PASS   SNOW       9   5  85 W33G41    29.86S VSB<1/4 WCI -15
SALIDA         PTSUNNY   32  15  48 W14G20    29.91R WCI  22
SUNLIGHT       LGT SNOW  12   9  85 SW9G25    29.84R VSB 3/4 WCI   0
WILKERSON PASS SNOW      16  12  86 SW12G22   29.78S VSB<1/4 WCI   3
$$

COZ069>075-222200-
...SAN LUIS VALLEY/SANGRE DE CRISTO MOUNTAINS...

CITY           SKY/WX    TMP DP  RH WIND       PRES   REMARKS
ALAMOSA        FAIR      35   8  32 SW29G38   29.89S WCI  22
DEL NORTE      FAIR      30  14  52 W21G26    29.88S WCI  17
LA VETA PASS   PTSUNNY   27  12  54 S31G51    29.91S WCI  10
SAGUACHE       CLOUDY    32   7  34 NW18      29.83F WCI  20
$$

COZ035-036-038>040-222200-
...NORTHERN COLORADO FRONT RANGE...

CITY           SKY/WX    TMP DP  RH WIND       PRES   REMARKS
DENVER INTL AP PTSUNNY   25  16  68 NW9       29.90S WCI  15
DMNS CITY PARK NOT AVBL
AURORA         MOSUNNY   26  18  70 N3        29.90R
FRONT RANGE AP PTSUNNY   28  19  69 NW3       29.91S
ERIE MUNI ARPT CLOUDY    21  13  70 N5        29.98S WCI  15
BOULDER MUN AP CLOUDY    23  14  68 N3        29.92S
CENTENNIAL     PTSUNNY   28  17  63 N8        29.87S WCI  20
BROOMFIELD     LGT SNOW  21  16  79 N8        29.90F VSB 1   WCI  12
LOVELAND       FAIR      24  15  68 E3        29.94F
LONGMONT       FAIR      32  15  49 CALM      29.95S
$$

COZ041-046-047-076>085-087-088-222200-
...PIKES PEAK/PALMER DIVIDE AND SOUTHERN FOOTHILLS...

CITY           SKY/WX    TMP DP  RH WIND       PRES   REMARKS
COLO. SPRINGS  FAIR      32  19  58 CALM      29.85F
A. F. ACADEMY  PTSUNNY   31  19  60 S8        29.83F WCI  24
SCHRIEVER AFB  NOT AVBL
CHEYENNE MTN   NOT AVBL
ELLICOTT         N/A    N/A N/A N/A VRB6      29.84F
FALCON         FAIR      32  17  53 CALM      29.84F
FORT CARSON    FAIR      33  18  54 E6        29.84F WCI  27
LIMON          FAIR      34  15  46 S9        29.89S WCI  27
MONUMENT HILL  CLOUDY    27  19  74 SE5       29.85S WCI  21
CANON CITY     MOSUNNY   37  21  52 E3        29.84F
WALSENBURG     FAIR      45   9  23 SW24G38   29.85S
TRINIDAD       FAIR      48   9  20 W26G35    29.86F
$$

COZ042>045-048>051-090-091-222200-
...NORTHEAST COLORADO...

CITY           SKY/WX    TMP DP  RH WIND       PRES   REMARKS
GREELEY ARPT   FAIR      27  18  69 NW3       29.95F
AKRON          CLOUDY    28  17  63 N3        29.92F
BURLINGTON     FAIR      33  20  58 S10       29.97F WCI  25
WRAY           FAIR      32  16  51 S13       30.00F WCI  22
YUMA           NOT AVBL
STERLING       CLOUDY    28  16  59 CALM      29.98S
HOLYOKE        PTSUNNY   34  14  44 SE6       30.00F WCI  29
FORT MORGAN    FAIR      31  14  49 E3        29.94S
$$

COZ086-089-092>099-222200-
...SOUTHEAST COLORADO...

CITY           SKY/WX    TMP DP  RH WIND       PRES   REMARKS
PUEBLO         FAIR      37  19  48 E10       29.88F
LA JUNTA       PTSUNNY   35  17  47 SE6       29.91F WCI  30
LAMAR          FAIR      51  16  24 SE8       29.89F
SPRINGFIELD      N/A     53  19  26 S29G36    29.87F
$$





USA.gov is the U.S. government's official web portal to all federal, state and local government web resources and services.